Location: Stara Lesna
(49.1528°N, 20.2911°E)
Time: 10:26:43
(UTC+02:00)

USA 267 - Pass Details

Date: 21 September 2019
Orbit: 1102 x 1106 km, 123.0° (Epoch: 17 October)

Event Time Altitude Azimuth Distance (km) Brightness Sun altitude
Rises 01:13:56 0° 59° (ENE) 3,926 6.7 -39.1°
Reaches altitude 10° 01:16:26 10° 56° (ENE) 2,967 6.0 -39.0°
Enters shadow 01:20:59 45° 34° (NE) 1,466 4.1 -38.8°
